K1VL Weather Reports


Display with metric or nautical units.
time (UTC)temp
F
wind
direction
speed
MPH
gust
MPH
rain 1hr
in
rain 24hr
in
rain mn
in
humidity
%
barometer
mb
20260506175517 56 90 1.0 2.0 0.20 0.71 0.61 99 1006.7
20260506175017 56 113 2.0 3.0 0.21 0.70 0.60 99 1006.8
20260506174517 56 135 1.0 3.0 0.21 0.69 0.59 99 1006.9
20260506174017 56 90 1.0 2.0 0.21 0.67 0.57 99 1006.9
20260506173517 56 90 1.0 2.0 0.20 0.63 0.53 98 1007.0
20260506173017 56 90 2.0 3.0 0.19 0.61 0.51 99 1007.1
20260506172517 56 90 1.0 4.0 0.20 0.60 0.50 98 1007.3
20260506172017 56 135 1.0 3.0 0.19 0.58 0.48 98 1007.4
20260506171517 56 135 1.0 2.0 0.21 0.57 0.47 98 1007.5
20260506171017 56 0.0 0.0 0.20 0.55 0.45 98 1007.6
20260506170517 56 0.0 1.0 0.24 0.53 0.43 98 1007.7
20260506170017 56 0.0 2.0 0.23 0.52 0.42 98 1007.7
20260506165517 56 90 1.0 2.0 0.23 0.51 0.41 98 1007.7
20260506165017 56 135 1.0 4.0 0.22 0.49 0.39 98 1007.6
20260506164517 56 135 1.0 3.0 0.22 0.48 0.38 98 1007.8
20260506164017 56 225 1.0 3.0 0.21 0.46 0.36 98 1007.8
20260506163517 56 135 1.0 4.0 0.18 0.43 0.33 98 1007.5
20260506163017 56 0.0 1.0 0.18 0.42 0.32 98 1007.5
20260506162517 56 158 1.0 4.0 0.17 0.40 0.30 98 1007.5
20260506162017 56 158 1.0 5.0 0.16 0.39 0.29 98 1007.7
20260506161517 56 90 1.0 3.0 0.13 0.36 0.26 98 1007.6
20260506161017 56 158 1.0 2.0 0.13 0.35 0.25 98 1007.8
20260506160517 56 113 2.0 5.0 0.07 0.29 0.19 97 1007.7
20260506160017 56 113 2.0 2.0 0.07 0.29 0.19 97 1007.9
20260506155517 57 0.0 1.0 0.07 0.28 0.18 97 1007.9
20260506155037 57 0.0 1.0 0.06 0.27 0.17 97 1008.0
20260506154537 57 0.0 0.0 0.06 0.26 0.16 97 1008.1
20260506154037 57 0.0 1.0 0.05 0.25 0.15 97 1008.1
20260506153517 57 0.0 2.0 0.06 0.25 0.15 97 1008.3
20260506153017 57 0.0 0.0 0.05 0.24 0.14 97 1008.4
20260506152517 56 0.0 0.0 0.04 0.23 0.13 97 1008.5
20260506152017 57 0.0 1.0 0.05 0.23 0.13 97 1008.5
20260506151537 57 0.0 0.0 0.05 0.23 0.13 97 1008.6
20260506151017 56 0.0 0.0 0.04 0.22 0.12 98 1008.8
20260506150517 56 0.0 0.0 0.05 0.22 0.12 97 1008.8
20260506150017 56 0.0 0.0 0.05 0.22 0.12 97 1008.9
20260506145517 56 0.0 0.0 0.05 0.21 0.11 97 1008.9
20260506145037 56 0.0 0.0 0.05 0.21 0.11 97 1008.9
20260506144517 56 0.0 0.0 0.04 0.20 0.10 97 1008.9
20260506144017 56 0.0 0.0 0.04 0.20 0.10 97 1008.9
20260506143517 56 0.0 0.0 0.03 0.19 0.09 96 1009.0
20260506143017 56 0.0 0.0 0.04 0.19 0.09 96 1009.0
20260506142517 56 0.0 1.0 0.04 0.19 0.09 96 1009.0
20260506142037 56 0.0 0.0 0.03 0.18 0.08 96 1009.0
20260506141517 56 0.0 0.0 0.03 0.18 0.08 97 1008.9
20260506141037 56 0.0 0.0 0.03 0.18 0.08 96 1008.9
20260506140517 56 0.0 1.0 0.02 0.17 0.07 96 1009.0
20260506140017 56 315 1.0 4.0 0.02 0.17 0.07 95 1008.8
20260506135517 56 0.0 1.0 0.01 0.16 0.06 96 1008.9
20260506135018 56 0.0 0.0 0.01 0.16 0.06 97 1008.8
20260506134517 56 0.0 1.0 0.01 0.16 0.06 96 1008.8
20260506134017 56 0.0 2.0 0.01 0.16 0.06 96 1008.7
20260506133537 56 248 1.0 3.0 0.01 0.16 0.06 96 1008.7
20260506133037 56 0.0 1.0 0.00 0.15 0.05 96 1008.8
20260506132517 55 0.0 0.0 0.01 0.15 0.05 97 1008.8
20260506132017 55 0.0 1.0 0.01 0.15 0.05 97 1008.7
20260506131517 55 0.0 0.0 0.01 0.15 0.05 97 1008.9
20260506131017 55 0.0 0.0 0.01 0.15 0.05 97 1009.1
20260506130538 55 0.0 0.0 0.01 0.15 0.05 97 1009.0
20260506130018 55 0.0 1.0 0.01 0.15 0.05 97 1009.2
20260506125517 55 0.0 1.0 0.01 0.15 0.05 97 1009.2
20260506125017 55 0.0 1.0 0.01 0.15 0.05 97 1009.3
20260506124517 55 0.0 2.0 0.01 0.15 0.05 98 1009.3
20260506124017 55 0.0 2.0 0.01 0.15 0.05 98 1009.4
20260506123517 55 0.0 1.0 0.01 0.15 0.05 99 1009.3
20260506123017 54 0.0 0.0 0.01 0.15 0.05 99 1009.2
20260506122538 54 0.0 0.0 0.00 0.14 0.04 99 1009.0
20260506122017 54 0.0 0.0 0.00 0.14 0.04 100 1008.9
20260506121517 54 0.0 0.0 0.00 0.14 0.04 100 1009.0
20260506121017 54 0.0 0.0 0.00 0.14 0.04 100 1009.1
20260506120517 53 0.0 1.0 0.00 0.14 0.04 100 1009.1
20260506120017 53 0.0 1.0 0.00 0.14 0.04 100 1009.1
20260506115517 53 0.0 1.0 0.00 0.14 0.04 100 1009.2
20260506115017 52 135 1.0 3.0 0.00 0.14 0.04 100 1009.2
20260506114517 52 113 1.0 2.0 0.00 0.14 0.04 100 1009.2
20260506114017 52 135 1.0 2.0 0.00 0.14 0.04 100 1009.1
20260506113517 51 0.0 1.0 0.00 0.14 0.04 100 1009.2
20260506113017 51 0.0 0.0 0.00 0.14 0.04 100 1009.3
20260506112517 51 0.0 0.0 0.00 0.14 0.04 100 1009.3
20260506112038 51 0.0 2.0 0.00 0.14 0.04 100 1009.2
20260506111517 51 0.0 1.0 0.00 0.14 0.04 100 1009.0
20260506111017 51 0.0 0.0 0.00 0.14 0.04 100 1009.0
20260506110517 50 0.0 0.0 0.00 0.14 0.04 100 1008.8
20260506110017 50 0.0 0.0 0.00 0.14 0.04 100 1008.9
20260506105517 50 0.0 2.0 0.00 0.14 0.04 100 1008.8
20260506105017 49 0.0 0.0 0.00 0.14 0.04 100 1009.1
20260506104517 49 0.0 0.0 0.00 0.14 0.04 100 1009.1
20260506104017 49 0.0 0.0 0.00 0.14 0.04 100 1009.1
20260506103517 49 0.0 1.0 0.00 0.14 0.04 100 1009.1
20260506103017 49 0.0 0.0 0.00 0.14 0.04 100 1009.1
20260506102517 49 0.0 1.0 0.00 0.14 0.04 100 1009.1
20260506102018 48 0.0 0.0 0.00 0.14 0.04 99 1008.9
20260506101537 48 0.0 0.0 0.00 0.14 0.04 99 1009.0
20260506101017 48 0.0 0.0 0.00 0.14 0.04 99 1009.0
20260506100517 48 0.0 1.0 0.00 0.14 0.04 99 1009.0
20260506100037 48 0.0 1.0 0.00 0.14 0.04 99 1009.1
20260506095517 48 0.0 1.0 0.00 0.14 0.04 99 1009.2
20260506095017 48 0.0 0.0 0.00 0.14 0.04 99 1009.3
20260506094517 48 0.0 1.0 0.00 0.14 0.04 99 1009.1
20260506094017 48 0.0 2.0 0.00 0.14 0.04 99 1009.2
20260506093517 48 0.0 2.0 0.00 0.14 0.04 99 1009.2
20260506093017 49 0.0 0.0 0.00 0.14 0.04 99 1009.4
20260506092517 49 0.0 0.0 0.00 0.14 0.04 99 1009.2
20260506092017 49 0.0 1.0 0.00 0.14 0.04 99 1009.2
20260506091537 49 0.0 0.0 0.00 0.14 0.04 99 1009.2
20260506091017 49 0.0 0.0 0.00 0.14 0.04 99 1009.2
20260506090517 49 0.0 0.0 0.00 0.14 0.04 99 1009.4
20260506090017 49 0.0 0.0 0.00 0.14 0.04 99 1009.6
20260506085517 50 0.0 0.0 0.00 0.14 0.04 99 1009.5
20260506085017 50 0.0 0.0 0.00 0.14 0.04 99 1009.5
20260506084517 50 0.0 0.0 0.00 0.14 0.04 99 1009.6
20260506084015 50 0.0 0.0 0.00 0.14 0.04 99 1009.8
20260506083515 50 0.0 1.0 0.00 0.14 0.04 99 1009.7
20260506083015 51 113 1.0 1.0 0.00 0.14 0.04 99 1009.6
20260506082515 51 0.0 1.0 0.00 0.14 0.04 99 1009.9
20260506082015 51 0.0 0.0 0.00 0.14 0.04 99 1010.1
20260506081555 51 0.0 0.0 0.00 0.14 0.04 99 1010.0
20260506081056 51 0.0 0.0 0.00 0.14 0.04 99 1010.0
20260506080515 51 0.0 0.0 0.00 0.14 0.04 99 1010.0
20260506073515 52 0.0 0.0 0.00 0.14 0.04 99 1009.8
20260506073015 52 0.0 0.0 0.00 0.14 0.04 99 1009.8
20260506072515 53 0.0 0.0 0.00 0.14 0.04 99 1009.8
20260506072015 53 0.0 0.0 0.00 0.14 0.04 99 1009.7
20260506071515 53 0.0 0.0 0.00 0.14 0.04 99 1009.9
20260506071015 53 0.0 0.0 0.00 0.14 0.04 99 1009.9
20260506070536 53 0.0 0.0 0.00 0.14 0.04 99 1010.0
20260506062019 54 0.0 0.0 0.00 0.14 0.04 98 1010.1
20260506061519 54 0.0 0.0 0.00 0.14 0.04 98 1010.1
20260506061019 55 0.0 1.0 0.01 0.14 0.04 98 1010.1
20260506060519 55 0.0 0.0 0.02 0.14 0.04 98 1010.1
20260506051036 55 293 1.0 4.0 0.03 0.13 0.03 99 1010.7
20260506050535 55 0.0 2.0 0.02 0.12 0.02 99 1010.5
20260506045015 55 0.0 1.0 0.00 0.10 0.00 99 1010.3
20260506044515 55 0.0 1.0 0.00 0.10 0.00 99 1010.3
20260506044015 54 0.0 0.0 0.00 0.10 0.00 99 1010.3
20260506043515 54 0.0 1.0 0.00 0.10 0.00 99 1010.3
20260506043015 54 0.0 0.0 0.00 0.10 0.00 99 1010.3
20260506042515 54 0.0 0.0 0.00 0.10 0.00 99 1010.1
20260506042036 54 0.0 1.0 0.00 0.10 0.00 99 1010.2
20260506041535 54 0.0 0.0 0.00 0.10 0.00 99 1010.2
20260506041056 54 0.0 0.0 0.00 0.10 0.00 99 1010.3
20260506040515 54 0.0 0.0 0.00 0.10 0.00 99 1010.3
20260506040015 54 0.0 0.0 0.00 0.10 0.01 98 1010.2
20260506035515 54 0.0 1.0 0.00 0.10 0.01 98 1010.1
20260506035015 54 0.0 1.0 0.00 0.10 0.01 98 1010.0
20260506034515 54 0.0 1.0 0.00 0.10 0.01 98 1010.0
20260506034035 54 0.0 1.0 0.00 0.10 0.01 98 1010.1
20260506033515 54 0.0 1.0 0.00 0.10 0.01 99 1010.1
20260506033015 54 0.0 1.0 0.00 0.10 0.01 98 1010.0
20260506032515 54 0.0 0.0 0.00 0.10 0.01 98 1010.0
20260506032015 54 0.0 0.0 0.00 0.10 0.01 98 1010.0
20260506031515 54 0.0 0.0 0.00 0.10 0.01 98 1009.9
20260506031015 54 0.0 1.0 0.00 0.10 0.01 98 1009.9
20260506030516 54 0.0 1.0 0.00 0.10 0.01 98 1009.9
20260506030015 54 0.0 1.0 0.00 0.10 0.01 98 1009.9
20260506025515 54 0.0 0.0 0.00 0.10 0.01 98 1009.8
20260506025015 54 0.0 1.0 0.00 0.10 0.01 98 1009.8
20260506024515 54 0.0 0.0 0.00 0.10 0.01 98 1009.8
20260506024015 54 0.0 0.0 0.00 0.10 0.01 98 1009.9
20260506023515 54 0.0 1.0 0.00 0.10 0.01 98 1009.8
20260506023015 54 0.0 0.0 0.00 0.10 0.01 98 1009.7
20260506022516 54 0.0 1.0 0.00 0.10 0.01 98 1009.7
20260506022016 54 0.0 1.0 0.00 0.10 0.01 98 1009.8
20260506021515 54 0.0 1.0 0.00 0.10 0.01 98 1009.8
20260506021015 54 0.0 0.0 0.00 0.10 0.01 99 1009.7
20260506020515 54 113 1.0 6.0 0.00 0.10 0.01 99 1009.8
20260506020015 54 0.0 0.0 0.00 0.10 0.01 99 1009.8
20260506015515 54 0.0 0.0 0.00 0.10 0.01 99 1009.8
20260506015015 54 0.0 0.0 0.00 0.10 0.01 99 1009.6
20260506014515 54 0.0 1.0 0.00 0.10 0.01 99 1009.7
20260506014015 53 0.0 2.0 0.00 0.10 0.01 99 1009.7
20260506013515 53 0.0 0.0 0.00 0.10 0.01 98 1009.6
20260506013015 53 0.0 0.0 0.00 0.10 0.01 98 1009.6
20260506012535 53 0.0 0.0 0.00 0.10 0.01 98 1009.5
20260506012015 53 0.0 1.0 0.00 0.10 0.01 98 1009.4
20260506011536 53 0.0 2.0 0.00 0.10 0.01 98 1009.2
20260506011016 54 0.0 1.0 0.00 0.10 0.01 98 1009.1
20260506010515 54 90 1.0 2.0 0.00 0.10 0.01 98 1009.1
20260506010015 54 0.0 1.0 0.00 0.10 0.01 98 1008.9
20260506005515 55 0.0 1.0 0.01 0.10 0.01 98 1008.9
20260506005015 55 0.0 0.0 0.01 0.10 0.01 98 1008.9
20260506004515 55 0.0 0.0 0.01 0.10 0.01 97 1008.9
20260506004015 55 0.0 0.0 0.01 0.10 0.01 98 1008.9
20260506003515 55 0.0 1.0 0.01 0.10 0.01 97 1009.0
20260506003015 56 0.0 2.0 0.01 0.10 0.01 97 1009.0
20260506002516 56 90 1.0 3.0 0.01 0.10 0.01 97 1008.9
20260506002015 56 0.0 0.0 0.01 0.10 0.01 97 1008.9
20260506001515 56 0.0 0.0 0.01 0.10 0.01 97 1009.0
20260506001015 56 0.0 0.0 0.01 0.10 0.01 97 1008.9
20260506000515 56 0.0 1.0 0.01 0.10 0.01 96 1008.8
20260506000015 56 0.0 1.0 0.01 0.10 0.01 96 1008.9
20260505235515 57 0.0 0.0 0.00 0.09 0.00 95 1009.1
20260505235015 57 0.0 1.0 0.00 0.09 0.00 95 1008.8
20260505234515 57 0.0 0.0 0.00 0.09 0.00 94 1008.9
20260505234015 58 0.0 0.0 0.00 0.09 0.00 92 1009.0
20260505233515 58 0.0 1.0 0.00 0.09 0.00 90 1009.1
20260505233015 59 0.0 3.0 0.00 0.09 0.00 86 1009.2
20260505232515 59 270 1.0 4.0 0.00 0.09 0.00 86 1009.1
20260505232015 59 0.0 2.0 0.00 0.09 0.00 87 1009.0
20260505231515 59 0.0 2.0 0.00 0.09 0.00 89 1009.2
20260505231015 59 0.0 2.0 0.00 0.09 0.00 91 1009.0
20260505230616 59 0.0 0.0 0.00 0.09 0.00 93 1009.0
20260505230015 59 0.0 3.0 0.00 0.09 0.00 92 1008.9
20260505225516 59 0.0 0.0 0.00 0.09 0.00 94 1008.9
20260505215036 60 315 3.0 8.0 0.00 0.09 0.09 90 1008.1
20260505214516 60 315 2.0 5.0 0.00 0.09 0.09 91 1008.1
20260505214016 60 0.0 2.0 0.00 0.09 0.09 93 1008.1
20260505213515 60 0.0 1.0 0.00 0.09 0.09 93 1008.1
20260505213016 60 293 1.0 2.0 0.00 0.09 0.09 92 1007.9
20260505212516 61 0.0 2.0 0.01 0.09 0.09 89 1007.6
20260505212016 60 0.0 1.0 0.02 0.09 0.09 87 1007.4
20260505211516 60 0.0 0.0 0.08 0.09 0.09 91 1007.4
20260505211015 59 0.0 0.0 0.09 0.09 0.09 94 1007.4
20260505210516 59 0.0 1.0 0.09 0.09 0.09 95 1007.4
20260505210015 58 0.0 1.0 0.09 0.09 0.09 95 1007.6
20260505205516 58 0.0 1.0 0.09 0.09 0.09 94 1007.4
20260505205015 58 113 1.0 2.0 0.09 0.09 0.09 94 1007.0
20260505204516 58 0.0 4.0 0.09 0.09 0.09 92 1007.0
20260505204016 58 315 1.0 9.0 0.09 0.09 0.09 91 1007.3
20260505203516 58 315 5.0 9.0 0.09 0.09 0.09 91 1008.3
20260505203036 58 315 5.0 12.0 0.09 0.09 0.09 89 1008.4
20260505202516 59 315 7.0 15.0 0.08 0.08 0.08 87 1008.2
20260505202015 62 315 8.0 19.0 0.07 0.07 0.07 84 1008.0
20260505201516 66 315 7.0 15.0 0.01 0.01 0.01 75 1008.1
20260505201016 71 315 11.0 22.0 0.00 0.00 0.00 60 1007.0
20260505200516 73 225 7.0 18.0 0.00 0.00 0.00 43 1006.2
20260505200036 73 203 8.0 21.0 0.00 0.00 0.00 42 1005.5
20260505195516 73 180 6.0 20.0 0.00 0.00 0.00 42 1005.7
20260505195016 74 158 4.0 10.0 0.00 0.00 0.00 43 1005.6
20260505194516 74 225 6.0 20.0 0.00 0.00 0.00 41 1005.6
20260505194016 74 225 6.0 13.0 0.00 0.00 0.00 41 1005.6
20260505193516 74 248 7.0 17.0 0.00 0.00 0.00 41 1005.5
20260505193036 74 248 7.0 22.0 0.00 0.00 0.00 40 1005.5
20260505192516 74 180 6.0 16.0 0.00 0.00 0.00 40 1005.5
20260505192016 74 203 6.0 15.0 0.00 0.00 0.00 40 1005.6
20260505191516 75 203 6.0 12.0 0.00 0.00 0.00 40 1005.4
20260505191016 75 203 7.0 18.0 0.00 0.00 0.00 40 1005.5
20260505190516 76 225 8.0 20.0 0.00 0.00 0.00 40 1005.6
20260505190036 76 180 6.0 16.0 0.00 0.00 0.00 40 1005.6
20260505185516 76 248 8.0 20.0 0.00 0.00 0.00 40 1005.6
20260505185016 76 203 7.0 18.0 0.00 0.00 0.00 39 1005.8
20260505184536 76 225 7.0 17.0 0.00 0.00 0.00 42 1006.0
20260505184016 75 180 8.0 15.0 0.00 0.00 0.00 41 1006.0
20260505183516 76 225 7.0 18.0 0.00 0.00 0.00 41 1006.1
20260505183016 76 135 7.0 17.0 0.00 0.00 0.00 41 1006.2
20260505182516 75 180 6.0 14.0 0.00 0.00 0.00 41 1006.0
20260505182016 75 270 6.0 17.0 0.00 0.00 0.00 41 1006.2
20260505181515 76 248 6.0 16.0 0.00 0.00 0.00 40 1006.2
20260505181016 76 158 7.0 15.0 0.00 0.00 0.00 41 1006.2
20260505180535 76 180 10.0 25.0 0.00 0.00 0.00 41 1006.3
20260505180016 77 180 8.0 20.0 0.00 0.00 0.00 39 1006.4